Date,TemperatureHighF,TemperatureAvgF,TemperatureLowF,DewpointHighF,DewpointAvgF,DewpointLowF,HumidityHigh,HumidityAvg,HumidityLow,PressureMaxIn,PressureMinIn,WindSpeedMaxMPH,WindSpeedAvgMPH,GustSpeedMaxMPH,PrecipitationSumIn
2013-1-1,33.3,27.3,14.9,-99.9,-99.9,-99.9,0,0,100,0.00,40.00,11,1,11,0.02
2013-1-2,31.7,19.0,8.1,-99.9,-99.9,-99.9,0,0,100,0.00,40.00,12,2,12,0.06
2013-1-3,40.6,20.5,4.2,-99.9,-99.9,-99.9,0,0,100,0.00,40.00,19,4,19,0.04
2013-1-4,45.6,28.9,22.3,-99.9,-99.9,-99.9,0,0,100,0.00,40.00,26,8,26,0.03
2013-1-5,45.8,27.1,23.6,-99.9,-99.9,-99.9,0,0,100,0.00,40.00,14,4,14,0.05
2013-1-6,37.0,33.1,30.8,-99.9,-99.9,-99.9,0,0,100,0.00,40.00,16,4,16,0.13
2013-1-7,45.1,30.9,24.9,-99.9,-99.9,-99.9,0,0,100,0.00,40.00,18,4,18,0.06
2013-1-8,55.0,31.9,19.0,-99.9,-99.9,-99.9,0,0,100,0.00,40.00,13,2,16,0.06
2013-1-9,64.2,39.4,26.5,-99.9,-99.9,-99.9,0,0,100,0.00,40.00,20,5,20,0.08
2013-1-10,61.6,36.8,23.1,-99.9,-99.9,-99.9,0,0,100,0.00,40.00,10,0,10,0.03
2013-1-11,52.9,43.4,38.3,-99.9,-99.9,-99.9,0,0,100,0.00,40.00,17,3,17,0.58
2013-1-12,68.0,54.0,45.6,-99.9,-99.9,-99.9,0,0,100,0.00,40.00,16,3,16,0.11
2013-1-13,68.5,59.0,42.5,-99.9,-99.9,-99.9,0,0,100,0.00,40.00,111,6,111,6.23
2013-1-14,42.2,31.4,24.2,-99.9,-99.9,-99.9,0,0,100,0.00,40.00,13,1,13,0.15
2013-1-15,56.6,31.3,23.9,-99.9,-99.9,-99.9,0,0,100,0.00,40.00,8,0,8,0.01
2013-1-16,37.5,31.7,27.7,-99.9,-99.9,-99.9,0,0,100,0.00,40.00,15,3,15,0.02
2013-1-17,37.0,32.3,25.7,-99.9,-99.9,-99.9,0,0,100,0.00,40.00,12,2,15,0.01
2013-1-18,44.6,27.1,16.8,-99.9,-99.9,-99.9,0,0,100,0.00,40.00,21,5,21,0.01
2013-1-19,59.0,42.1,19.1,-99.9,-99.9,-99.9,0,0,100,0.00,40.00,192,10,239,18.40
2013-1-20,45.6,29.1,21.0,-99.9,-99.9,-99.9,0,0,100,0.00,40.00,143,5,239,2.65
2013-1-21,30.7,18.3,9.5,-99.9,-99.9,-99.9,0,0,100,0.00,40.00,21,5,21,5.12
2013-1-22,35.0,10.4,4.2,-99.9,-99.9,-99.9,0,0,100,0.00,40.00,21,6,21,0.10
2013-1-23,32.3,12.0,4.1,-99.9,-99.9,-99.9,0,0,100,0.00,40.00,191,4,223,5.12
2013-1-24,50.9,17.7,2.0,-99.9,-99.9,-99.9,0,0,100,0.00,40.00,191,1,191,0.07
2013-1-25,27.7,14.2,6.3,-99.9,-99.9,-99.9,0,0,100,0.00,40.00,12,0,12,0.03
2013-1-26,46.8,22.5,12.9,-99.9,-99.9,-99.9,0,0,100,0.00,40.00,12,0,12,0.10
2013-1-27,47.5,26.3,5.3,-99.9,-99.9,-99.9,0,0,100,0.00,40.00,10,0,11,0.16
2013-1-28,45.2,38.3,25.7,-99.9,-99.9,-99.9,0,0,100,0.00,40.00,20,4,21,0.38
2013-1-29,58.8,50.2,38.5,-99.9,-99.9,-99.9,0,0,100,0.00,40.00,20,4,20,0.14
2013-1-30,63.6,56.3,37.8,-99.9,-99.9,-99.9,0,0,100,0.00,40.00,27,10,28,0.18
2013-1-31,37.8,25.2,17.3,-99.9,-99.9,-99.9,0,0,100,0.00,40.00,28,9,29,0.04
2013-2-1,39.2,17.4,11.5,-99.9,-99.9,-99.9,0,0,100,0.00,40.00,22,6,22,0.03
2013-2-2,26.9,16.8,8.9,-99.9,-99.9,-99.9,0,0,100,0.00,40.00,16,3,16,2.66
2013-2-3,44.6,22.5,16.2,-99.9,-99.9,-99.9,0,0,100,0.00,40.00,15,2,16,0.14
2013-2-4,33.3,21.1,14.3,-99.9,-99.9,-99.9,0,0,100,0.00,40.00,14,3,16,0.07
2013-2-5,45.8,26.1,19.5,-99.9,-99.9,-99.9,0,0,100,0.00,40.00,10,0,10,0.12
2013-2-6,63.6,30.4,13.8,-99.9,-99.9,-99.9,0,0,100,0.00,40.00,14,0,14,0.05
2013-2-7,64.2,32.9,14.3,-99.9,-99.9,-99.9,0,0,100,0.00,40.00,14,2,16,0.02
2013-2-8,36.5,30.0,20.0,-99.9,-99.9,-99.9,0,0,100,0.00,40.00,20,4,22,0.28
2013-2-9,57.3,29.3,16.8,-99.9,-99.9,-99.9,0,0,100,0.00,40.00,18,1,18,0.05
2013-2-10,60.3,35.4,16.5,-99.9,-99.9,-99.9,0,0,100,0.00,40.00,15,1,16,0.03
2013-2-11,57.6,40.5,33.0,-99.9,-99.9,-99.9,0,0,100,0.00,40.00,24,8,33,0.05
2013-2-12,35.5,30.0,22.1,-99.9,-99.9,-99.9,0,0,100,0.00,40.00,18,3,24,0.02
2013-2-13,48.1,29.7,21.8,-99.9,-99.9,-99.9,0,0,100,0.00,40.00,8,0,8,0.02
2013-2-14,38.8,32.2,21.8,-99.9,-99.9,-99.9,0,0,100,0.00,40.00,19,6,20,0.04
2013-2-15,45.6,32.4,22.3,-99.9,-99.9,-99.9,0,0,100,0.00,40.00,27,2,27,0.04
2013-2-16,47.5,25.9,14.8,-99.9,-99.9,-99.9,0,0,100,0.00,40.00,10,0,10,0.07
2013-2-17,49.6,21.5,7.2,-99.9,-99.9,-99.9,0,0,100,0.00,40.00,17,1,17,0.08
2013-2-18,42.3,26.4,5.3,-99.9,-99.9,-99.9,0,0,100,0.00,40.00,22,3,22,0.02
2013-2-19,44.6,31.8,17.3,-99.9,-99.9,-99.9,0,0,100,0.00,40.00,27,10,29,0.00
2013-2-20,36.3,19.7,15.7,-99.9,-99.9,-99.9,0,0,100,0.00,40.00,20,6,21,0.03
2013-2-21,33.3,21.2,13.0,-99.9,-99.9,-99.9,0,0,100,0.00,40.00,10,1,11,0.03
2013-2-22,34.5,30.0,16.5,-99.9,-99.9,-99.9,0,0,100,0.00,40.00,15,2,15,0.03
2013-2-23,46.4,33.2,8.8,-99.9,-99.9,-99.9,0,0,100,0.00,40.00,11,1,11,0.11
2013-2-24,43.0,29.4,22.3,-99.9,-99.9,-99.9,0,0,100,0.00,40.00,13,1,13,0.60
2013-2-25,56.3,33.8,19.2,-99.9,-99.9,-99.9,0,0,100,0.00,40.00,9,0,9,0.02
2013-2-26,39.5,33.6,27.2,-99.9,-99.9,-99.9,0,0,100,0.00,40.00,20,4,20,0.75
2013-2-27,44.3,36.9,31.5,-99.9,-99.9,-99.9,0,0,100,0.00,40.00,17,4,19,0.16
2013-2-28,36.3,32.8,30.0,-99.9,-99.9,-99.9,0,0,100,0.00,40.00,12,2,12,0.06
2013-3-1,31.0,27.9,24.7,-99.9,-99.9,-99.9,0,0,100,0.00,40.00,12,1,12,2.19
2013-3-2,31.7,25.6,-51.2,-99.9,-99.9,-99.9,0,0,100,0.00,40.00,13,1,13,2.57
2013-3-3,43.0,25.4,20.5,-99.9,-99.9,-99.9,0,0,100,0.00,40.00,191,1,239,0.58
2013-3-4,59.5,28.5,15.1,-99.9,-99.9,-99.9,0,0,100,0.00,40.00,10,1,10,0.12
2013-3-5,50.1,30.5,13.5,-99.9,-99.9,-99.9,0,0,100,0.00,40.00,9,1,10,0.00
2013-3-6,57.6,37.8,31.5,-99.9,-99.9,-99.9,0,0,100,0.00,40.00,12,1,12,1.24
2013-3-7,49.4,34.3,29.5,-99.9,-99.9,-99.9,0,0,100,0.00,40.00,12,1,14,0.00
2013-3-8,46.1,33.9,28.0,-99.9,-99.9,-99.9,0,0,100,0.00,40.00,12,1,14,0.01
2013-3-9,61.6,39.5,21.5,-99.9,-99.9,-99.9,0,0,100,0.00,40.00,10,0,10,0.02
2013-3-10,67.7,49.2,43.7,-99.9,-99.9,-99.9,0,0,100,0.00,40.00,13,2,14,0.01
2013-3-11,59.2,53.3,43.8,-99.9,-99.9,-99.9,0,0,100,0.00,40.00,20,3,20,0.65
2013-3-12,44.3,36.9,32.5,-99.9,-99.9,-99.9,0,0,100,0.00,40.00,17,5,19,0.00
2013-3-13,41.1,30.5,26.0,-99.9,-99.9,-99.9,0,0,100,0.00,40.00,22,4,22,0.03
2013-3-14,46.3,30.5,23.7,-99.9,-99.9,-99.9,0,0,100,0.00,40.00,16,2,16,0.01
2013-3-15,46.7,34.4,24.9,-99.9,-99.9,-99.9,0,0,100,0.00,40.00,19,4,19,0.03
2013-3-16,45.2,32.6,26.2,-99.9,-99.9,-99.9,0,0,100,0.00,40.00,11,0,12,0.17
2013-3-17,55.6,32.3,23.1,-99.9,-99.9,-99.9,0,0,100,0.00,40.00,11,0,11,0.10
2013-3-18,36.3,31.0,23.7,-99.9,-99.9,-99.9,0,0,100,0.00,40.00,22,3,24,0.51
2013-3-19,37.4,31.6,27.5,-99.9,-99.9,-99.9,0,0,100,0.00,40.00,25,8,29,0.03
2013-3-20,44.8,29.5,22.1,-99.9,-99.9,-99.9,0,0,100,0.00,40.00,18,4,19,0.01
2013-3-21,43.3,24.4,16.0,-99.9,-99.9,-99.9,0,0,100,0.00,40.00,17,4,18,0.01
2013-3-22,43.3,28.4,16.3,-99.9,-99.9,-99.9,0,0,100,0.00,40.00,14,1,16,0.08
2013-3-23,61.1,31.4,13.7,-99.9,-99.9,-99.9,0,0,100,0.00,40.00,12,0,12,0.02
2013-3-24,41.0,30.6,0.8,-99.9,-99.9,-99.9,0,0,100,0.00,40.00,13,1,13,0.01
2013-3-25,43.7,33.9,30.0,-99.9,-99.9,-99.9,0,0,100,0.00,40.00,15,0,16,0.14
2013-3-26,47.8,35.7,30.3,-99.9,-99.9,-99.9,0,0,100,0.00,40.00,15,1,15,0.02
2013-3-27,48.6,37.3,31.5,-99.9,-99.9,-99.9,0,0,100,0.00,40.00,14,2,14,0.04
2013-3-28,50.4,38.2,0.2,-99.9,-99.9,-99.9,0,0,100,0.00,40.00,12,1,14,0.07
2013-3-29,46.3,36.5,34.3,-99.9,-99.9,-99.9,0,0,100,0.00,40.00,8,0,8,0.00
2013-4-1,33.0,31.2,30.0,-99.9,-99.9,-99.9,0,0,100,0.00,40.00,12,1,12,0.01
2013-4-2,48.6,31.7,23.1,-99.9,-99.9,-99.9,0,0,100,0.00,40.00,21,2,23,0.00
2013-4-3,48.3,31.9,20.8,-99.9,-99.9,-99.9,0,0,100,0.00,40.00,18,1,20,0.00
2013-4-4,60.9,36.6,17.0,-99.9,-99.9,-99.9,0,0,100,0.00,40.00,13,1,14,0.00
2013-4-5,61.7,40.1,20.5,-99.9,-99.9,-99.9,0,0,100,0.00,40.00,14,1,16,0.07
2013-4-6,58.8,48.5,0.1,-99.9,-99.9,-99.9,0,0,100,0.00,40.00,18,4,23,0.01
2013-4-7,73.9,59.5,41.1,-99.9,-99.9,-99.9,0,0,100,0.00,40.00,26,6,26,0.00
2013-4-8,75.5,55.3,31.7,-99.9,-99.9,-99.9,0,0,100,0.00,40.00,22,4,23,0.00
2013-4-9,79.4,63.5,44.8,-99.9,-99.9,-99.9,0,0,100,0.00,40.00,16,3,17,0.43
2013-4-10,79.8,59.5,43.8,-99.9,-99.9,-99.9,0,0,100,0.00,40.00,25,3,25,0.84
2013-4-11,56.3,48.0,42.5,-99.9,-99.9,-99.9,0,0,100,0.00,40.00,13,2,15,0.08
2013-4-12,60.8,48.3,39.0,-99.9,-99.9,-99.9,0,0,100,0.00,40.00,23,5,23,0.36
2013-4-13,46.6,40.6,34.0,-99.9,-99.9,-99.9,0,0,100,0.00,40.00,19,7,19,0.00
2013-4-14,61.1,43.6,28.0,-99.9,-99.9,-99.9,0,0,100,0.00,40.00,10,1,13,0.13
2013-4-15,74.9,59.7,44.6,-99.9,-99.9,-99.9,0,0,100,0.00,40.00,21,4,22,0.00
2013-4-16,73.9,58.5,48.6,-99.9,-99.9,-99.9,0,0,100,0.00,40.00,21,5,21,0.09
2013-4-17,76.8,57.6,44.6,-99.9,-99.9,-99.9,0,0,100,0.00,40.00,10,1,10,0.01
2013-4-18,85.5,72.8,56.9,-99.9,-99.9,-99.9,0,0,100,0.00,40.00,25,8,26,0.08
2013-4-19,73.9,56.0,39.5,-99.9,-99.9,-99.9,0,0,100,0.00,40.00,30,8,31,0.11
2013-4-20,52.0,38.5,26.9,-99.9,-99.9,-99.9,0,0,100,0.00,40.00,21,4,21,0.00
2013-4-21,62.0,41.1,23.4,-99.9,-99.9,-99.9,0,0,100,0.00,40.00,10,0,10,0.00
2013-4-22,69.4,51.8,32.5,-99.9,-99.9,-99.9,0,0,100,0.00,40.00,16,2,18,0.00
2013-4-23,73.9,58.8,39.5,-99.9,-99.9,-99.9,0,0,100,0.00,40.00,21,4,22,0.00
2013-4-24,62.0,51.6,35.5,-99.9,-99.9,-99.9,0,0,100,0.00,40.00,19,4,20,0.73
2013-4-25,59.2,42.6,31.0,-99.9,-99.9,-99.9,0,0,100,0.00,40.00,22,4,22,0.06
2013-4-26,69.4,47.1,28.2,-99.9,-99.9,-99.9,0,0,100,0.00,40.00,10,1,11,0.00
2013-4-27,81.3,56.5,34.3,-99.9,-99.9,-99.9,0,0,100,0.00,40.00,16,1,16,0.00
2013-4-28,59.2,54.0,49.9,-99.9,-99.9,-99.9,0,0,100,0.00,40.00,14,1,16,0.39
2013-4-29,63.6,57.1,54.0,-99.9,-99.9,-99.9,0,0,100,0.00,40.00,8,0,10,0.16
2013-4-30,80.9,65.1,52.1,-99.9,-99.9,-99.9,0,0,100,0.00,40.00,16,2,17,0.00
2013-5-1,82.6,67.0,52.1,-99.9,-99.9,-99.9,0,0,100,0.00,40.00,15,2,15,0.00
2013-5-2,83.0,66.9,52.1,-99.9,-99.9,-99.9,0,0,100,0.00,40.00,13,1,13,0.00
2013-5-3,80.9,65.8,52.9,-99.9,-99.9,-99.9,0,0,100,0.00,40.00,22,2,22,0.00
2013-5-4,79.4,60.7,48.6,-99.9,-99.9,-99.9,0,0,100,0.00,40.00,16,1,16,0.00
2013-5-5,82.6,64.1,42.5,-99.9,-99.9,-99.9,0,0,100,0.00,40.00,15,1,18,0.01
2013-5-6,83.1,63.8,47.1,-99.9,-99.9,-99.9,0,0,100,0.00,40.00,14,1,18,0.00
2013-5-7,86.7,66.3,51.4,-99.9,-99.9,-99.9,0,0,100,0.00,40.00,14,0,16,0.00
2013-5-8,83.1,63.6,55.6,-99.9,-99.9,-99.9,0,0,100,0.00,40.00,11,0,11,0.07
2013-5-9,85.9,65.6,51.7,-99.9,-99.9,-99.9,0,0,100,0.00,40.00,11,0,11,0.00
2013-5-10,77.8,64.5,54.8,-99.9,-99.9,-99.9,0,0,100,0.00,40.00,22,4,25,0.42
2013-5-11,60.3,49.8,44.0,-99.9,-99.9,-99.9,0,0,100,0.00,40.00,16,2,22,0.03
2013-5-12,56.9,42.3,33.0,-99.9,-99.9,-99.9,0,0,100,0.00,40.00,21,3,21,0.04
2013-5-13,63.0,42.9,31.0,-99.9,-99.9,-99.9,0,0,100,0.00,40.00,14,1,14,0.00
2013-5-14,58.7,46.3,30.0,-99.9,-99.9,-99.9,0,0,100,0.00,40.00,12,1,12,0.01
2013-5-15,88.5,66.6,48.1,-99.9,-99.9,-99.9,0,0,100,0.00,40.00,22,3,24,0.01
2013-5-16,89.7,68.1,49.6,-99.9,-99.9,-99.9,0,0,100,0.00,40.00,12,0,15,0.00
2013-5-17,89.3,66.4,45.2,-99.9,-99.9,-99.9,0,0,100,0.00,40.00,10,0,10,0.01
2013-5-18,93.1,68.4,52.1,-99.9,-99.9,-99.9,0,0,100,0.00,40.00,8,0,8,0.00
2013-5-19,88.1,69.9,57.6,-99.9,-99.9,-99.9,0,0,100,0.00,40.00,12,1,12,0.00
2013-5-20,92.3,74.4,59.0,-99.9,-99.9,-99.9,0,0,100,0.00,40.00,13,2,13,0.01
2013-5-21,92.6,77.5,66.8,-99.9,-99.9,-99.9,0,0,100,0.00,40.00,18,4,18,0.00
2013-5-22,91.2,77.4,67.3,-99.9,-99.9,-99.9,0,0,100,0.00,40.00,19,5,19,0.01
2013-5-23,82.4,62.9,43.5,-99.9,-99.9,-99.9,0,0,100,0.00,40.00,16,3,23,0.79
2013-5-24,50.9,42.8,32.0,-99.9,-99.9,-99.9,0,0,100,0.00,40.00,14,2,16,0.14
2013-5-25,69.9,48.8,31.0,-99.9,-99.9,-99.9,0,0,100,0.00,40.00,15,1,15,0.18
2013-5-26,77.1,53.2,34.0,-99.9,-99.9,-99.9,0,0,100,0.00,40.00,13,0,13,0.06
2013-5-27,74.9,53.2,35.1,-99.9,-99.9,-99.9,0,0,100,0.00,40.00,10,0,11,0.04
2013-5-28,82.7,66.5,50.9,-99.9,-99.9,-99.9,0,0,100,0.00,40.00,13,3,13,0.99
2013-5-29,90.1,76.4,67.7,-99.9,-99.9,-99.9,0,0,100,0.00,40.00,16,4,16,0.00
2013-5-30,93.7,75.4,62.8,-99.9,-99.9,-99.9,0,0,100,0.00,40.00,14,2,14,0.00
2013-5-31,92.9,76.5,63.9,-99.9,-99.9,-99.9,0,0,100,0.00,40.00,18,2,18,0.11
2013-6-1,87.4,75.8,65.3,-99.9,-99.9,-99.9,0,0,100,0.00,40.00,20,5,21,0.00
2013-6-2,85.7,70.7,59.4,-99.9,-99.9,-99.9,0,0,100,0.00,40.00,191,4,223,0.99
2013-6-3,128.0,58.5,42.5,-99.9,-99.9,-99.9,0,0,100,0.00,40.00,191,1,239,0.00
2013-6-4,128.0,58.1,39.5,-99.9,-99.9,-99.9,0,0,100,0.00,40.00,159,1,239,0.00
2013-6-5,102.4,64.8,25.6,-99.9,-99.9,-99.9,0,0,100,0.00,40.00,95,0,239,2.56
2013-6-6,69.0,62.5,54.8,-99.9,-99.9,-99.9,0,0,100,0.00,40.00,159,0,239,0.69
2013-6-7,68.0,58.1,54.1,-99.9,-99.9,-99.9,0,0,100,0.00,40.00,191,1,239,2.56
2013-6-8,80.9,61.8,52.4,-99.9,-99.9,-99.9,0,0,100,0.00,40.00,191,1,239,0.39
2013-6-9,128.0,68.4,50.7,-99.9,-99.9,-99.9,0,0,100,0.00,40.00,9,0,9,0.07
2013-6-10,78.8,68.3,61.7,-99.9,-99.9,-99.9,0,0,100,0.00,40.00,11,1,12,0.46
2013-6-11,81.5,68.4,62.0,-99.9,-99.9,-99.9,0,0,100,0.00,40.00,12,2,12,0.00
2013-6-12,87.4,71.6,60.0,-99.9,-99.9,-99.9,0,0,100,0.00,40.00,8,0,8,0.00
2013-6-13,74.2,63.0,54.5,-99.9,-99.9,-99.9,0,0,100,0.00,40.00,20,2,20,1.14
2013-6-14,84.4,63.4,50.7,-99.9,-99.9,-99.9,0,0,100,0.00,40.00,13,1,13,0.00
2013-6-15,84.8,66.2,45.6,-99.9,-99.9,-99.9,0,0,100,0.00,40.00,12,1,12,0.01
2013-6-16,84.8,70.0,61.2,-99.9,-99.9,-99.9,0,0,100,0.00,40.00,21,3,26,0.36
2013-6-17,91.5,71.3,61.9,-99.9,-99.9,-99.9,0,0,100,0.00,40.00,10,1,10,0.27
2013-6-28,74.9,65.2,61.6,-99.9,-99.9,-99.9,0,0,100,0.00,40.00,7,0,7,0.03
2013-6-29,85.9,68.3,50.6,-99.9,-99.9,-99.9,0,0,100,0.00,40.00,10,0,10,0.51
2013-6-30,91.2,71.3,60.8,-99.9,-99.9,-99.9,0,0,100,0.00,40.00,9,0,9,0.06
2013-7-1,76.4,67.6,62.8,-99.9,-99.9,-99.9,0,0,100,0.00,40.00,6,0,8,7.52
2013-7-2,90.4,72.2,62.2,-99.9,-99.9,-99.9,0,0,100,0.00,40.00,8,0,8,0.18
2013-7-3,92.8,75.7,64.4,-99.9,-99.9,-99.9,0,0,100,0.00,40.00,13,2,13,0.05
2013-7-4,85.9,74.1,66.8,-99.9,-99.9,-99.9,0,0,100,0.00,40.00,12,2,13,0.04
2013-7-5,85.5,73.3,65.9,-99.9,-99.9,-99.9,0,0,100,0.00,40.00,14,2,14,0.11
2013-7-6,92.9,75.5,65.6,-99.9,-99.9,-99.9,0,0,100,0.00,40.00,10,1,10,0.09
2013-7-7,80.1,69.9,67.3,-99.9,-99.9,-99.9,0,0,100,0.00,40.00,143,2,239,0.03
2013-8-3,82.6,66.9,56.6,-99.9,-99.9,-99.9,0,0,100,0.00,40.00,8,0,9,0.21
2013-8-4,85.9,66.6,13.0,-99.9,-99.9,-99.9,0,0,100,0.00,40.00,13,1,13,0.00
2013-8-5,86.7,63.7,48.3,-99.9,-99.9,-99.9,0,0,100,0.00,40.00,7,0,8,0.01
2013-8-6,90.1,68.5,55.1,-99.9,-99.9,-99.9,0,0,100,0.00,40.00,11,0,11,0.00
2013-8-7,85.2,69.4,60.5,-99.9,-99.9,-99.9,0,0,100,0.00,40.00,13,1,13,1.35
2013-8-8,91.7,73.5,67.3,-99.9,-99.9,-99.9,0,0,100,0.00,40.00,12,0,12,0.45
2013-8-9,90.4,70.8,57.3,-99.9,-99.9,-99.9,0,0,100,0.00,40.00,8,0,10,0.03
2013-8-10,94.9,69.6,56.2,-99.9,-99.9,-99.9,0,0,100,0.00,40.00,9,0,9,0.94
2013-8-11,93.2,71.9,58.2,-99.9,-99.9,-99.9,0,0,100,0.00,40.00,7,0,8,0.01
2013-8-12,85.5,69.7,58.4,-99.9,-99.9,-99.9,0,0,100,0.00,40.00,9,1,9,0.00
2013-8-13,84.4,68.9,49.1,-99.9,-99.9,-99.9,0,0,100,0.00,40.00,14,1,14,0.01
2013-8-14,81.6,60.4,48.3,-99.9,-99.9,-99.9,0,0,100,0.00,40.00,13,1,13,0.01
2013-8-15,50.4,49.5,48.6,-99.9,-99.9,-99.9,0,0,100,0.00,40.00,0,0,0,0.00
2013-9-1,84.5,73.1,68.0,-99.9,-99.9,-99.9,0,0,100,0.00,40.00,5,0,5,0.29
2013-9-2,94.4,72.6,63.1,-99.9,-99.9,-99.9,0,0,100,0.00,40.00,11,1,11,0.00
2013-9-3,69.4,62.4,54.0,-99.9,-99.9,-99.9,0,0,100,0.00,40.00,10,1,10,0.03
2013-9-4,87.0,65.6,51.2,-99.9,-99.9,-99.9,0,0,100,0.00,40.00,13,2,13,0.01
2013-9-5,86.7,65.1,47.8,-99.9,-99.9,-99.9,0,0,100,0.00,40.00,12,1,12,0.00
2013-9-6,85.5,61.9,44.8,-99.9,-99.9,-99.9,0,0,100,0.00,40.00,6,0,6,0.01
2013-9-18,83.5,73.7,50.8,-99.9,-99.9,-99.9,0,0,100,0.00,40.00,7,0,8,0.01
2013-9-30,69.6,61.7,55.8,-99.9,-99.9,-99.9,0,0,100,0.00,40.00,11,2,12,0.01
2013-10-1,59.1,57.9,55.8,-99.9,-99.9,-99.9,0,0,100,0.00,40.00,0,0,0,0.00
2013-10-12,79.4,79.4,79.4,-99.9,-99.9,-99.9,0,0,100,0.00,40.00,3,0,3,0.02
2013-10-16,61.6,55.1,49.4,-99.9,-99.9,-99.9,0,0,100,0.00,40.00,7,0,9,1.40
2013-10-17,75.5,49.1,42.3,-99.9,-99.9,-99.9,0,0,100,0.00,40.00,8,0,9,0.13
2013-10-18,73.0,64.6,60.0,-99.9,-99.9,-99.9,0,0,100,0.00,40.00,16,5,16,0.17
2013-10-20,55.6,48.1,45.8,-99.9,-99.9,-99.9,0,0,100,0.00,40.00,10,1,10,0.08
2013-10-21,70.2,53.9,43.8,-99.9,-99.9,-99.9,0,0,100,0.00,40.00,17,3,17,0.07
2013-10-22,50.1,43.0,37.0,-99.9,-99.9,-99.9,0,0,100,0.00,40.00,13,3,15,0.16
2013-11-3,65.3,37.8,26.2,-99.9,-99.9,-99.9,0,0,100,0.00,40.00,11,0,11,0.04
2013-11-4,50.9,35.3,25.4,-99.9,-99.9,-99.9,0,0,100,0.00,40.00,13,0,13,0.08
2013-11-5,39.5,39.1,39.0,-99.9,-99.9,-99.9,0,0,100,0.00,40.00,0,0,5,0.01
2013-11-15,50.7,49.5,49.1,-99.9,-99.9,-99.9,0,0,100,0.00,40.00,12,3,14,0.14
2013-11-16,63.9,59.3,56.1,-99.9,-99.9,-99.9,0,0,100,0.00,40.00,13,3,15,0.01
2013-11-17,60.6,60.1,59.4,-99.9,-99.9,-99.9,0,0,100,0.00,40.00,20,12,26,1.65
2013-11-18,55.8,40.6,34.6,-99.9,-99.9,-99.9,0,0,100,0.00,40.00,25,6,25,0.01
2013-11-19,41.8,34.2,24.4,-99.9,-99.9,-99.9,0,0,100,0.00,40.00,13,0,13,0.01
2013-11-20,56.8,37.2,21.8,-99.9,-99.9,-99.9,0,0,100,0.00,40.00,13,1,13,0.01
2013-11-21,43.5,38.2,33.8,-99.9,-99.9,-99.9,0,0,100,0.00,40.00,12,0,13,0.09
2013-11-22,50.1,44.6,33.8,-99.9,-99.9,-99.9,0,0,100,0.00,40.00,18,0,18,0.16
2013-11-23,49.1,28.6,18.4,-99.9,-99.9,-99.9,0,0,100,0.00,40.00,18,3,20,0.03
2013-11-24,32.7,20.7,12.4,-99.9,-99.9,-99.9,0,0,100,0.00,40.00,20,3,20,0.01
2013-11-25,36.8,24.9,12.1,-99.9,-99.9,-99.9,0,0,100,0.00,40.00,22,5,24,0.01
2013-11-26,32.0,30.7,30.0,-99.9,-99.9,-99.9,0,0,100,0.00,40.00,11,0,21,0.02
2013-11-27,38.0,28.1,21.5,-99.9,-99.9,-99.9,0,0,100,0.00,40.00,14,1,16,0.01
2013-11-28,26.2,23.0,21.0,-99.9,-99.9,-99.9,0,0,100,0.00,40.00,10,0,12,0.01
2013-11-29,62.5,30.9,17.9,-99.9,-99.9,-99.9,0,0,100,0.00,40.00,3,0,9,0.16
2013-11-30,52.8,29.9,21.0,-99.9,-99.9,-99.9,0,0,100,0.00,40.00,16,1,16,0.02
2013-12-1,45.3,34.3,24.4,-99.9,-99.9,-99.9,0,0,100,0.00,40.00,10,2,12,0.03
2013-12-2,47.3,35.4,28.0,-99.9,-99.9,-99.9,0,0,100,0.00,40.00,6,0,6,0.03
2013-12-3,63.3,39.4,28.2,-99.9,-99.9,-99.9,0,0,100,0.00,40.00,9,0,9,0.00
2013-12-4,64.2,49.4,38.5,-99.9,-99.9,-99.9,0,0,100,0.00,40.00,14,1,14,0.01
2013-12-5,62.8,54.7,38.0,-99.9,-99.9,-99.9,0,0,100,0.00,40.00,22,6,22,0.03
2013-12-6,29.2,27.6,26.4,-99.9,-99.9,-99.9,0,0,100,0.00,40.00,7,0,8,0.12
2013-12-7,54.0,25.0,16.3,-99.9,-99.9,-99.9,0,0,100,0.00,40.00,10,0,13,0.05
2013-12-8,30.5,23.6,18.1,-99.9,-99.9,-99.9,0,0,100,0.00,40.00,14,2,14,0.22
2013-12-9,34.6,31.2,26.0,-99.9,-99.9,-99.9,0,0,100,0.00,40.00,175,6,239,12.80
2013-12-10,45.6,25.5,20.0,-99.9,-99.9,-99.9,0,0,100,0.00,40.00,24,6,239,0.03
2013-12-11,30.5,20.8,16.2,-99.9,-99.9,-99.9,0,0,100,0.00,40.00,15,5,19,0.03
2013-12-12,35.0,17.1,9.5,-99.9,-99.9,-99.9,0,0,100,0.00,40.00,19,6,19,0.03
2013-12-13,47.3,23.7,14.6,-99.9,-99.9,-99.9,0,0,100,0.00,40.00,14,3,15,0.02
2013-12-14,33.7,28.3,22.3,-99.9,-99.9,-99.9,0,0,100,0.00,40.00,10,0,10,0.03
2013-12-15,34.5,27.1,19.2,-99.9,-99.9,-99.9,0,0,100,0.00,40.00,20,5,20,0.00
2013-12-16,44.6,43.3,40.3,-99.9,-99.9,-99.9,0,0,100,0.00,40.00,7,4,7,0.00
2013-12-20,54.0,48.8,44.8,-99.9,-99.9,-99.9,0,0,100,0.00,40.00,16,6,17,0.21
2013-12-21,59.3,50.5,42.0,-99.9,-99.9,-99.9,0,0,100,0.00,40.00,19,4,20,1.27
2013-12-22,65.3,54.3,40.7,-99.9,-99.9,-99.9,0,0,100,0.00,40.00,191,8,239,0.43
2013-12-23,41.7,33.5,28.5,-99.9,-99.9,-99.9,0,0,100,0.00,40.00,14,2,16,0.11
2013-12-24,45.6,23.4,-51.2,-99.9,-99.9,-99.9,0,0,100,0.00,40.00,191,4,239,7.68
2013-12-25,28.8,18.4,12.6,-99.9,-99.9,-99.9,0,0,100,0.00,40.00,12,2,13,0.02
2013-12-26,27.7,27.5,27.5,-99.9,-99.9,-99.9,0,0,100,0.00,40.00,4,0,4,0.02
2013-12-27,58.2,38.8,27.5,-99.9,-99.9,-99.9,0,0,100,0.00,40.00,14,4,15,0.04
2013-12-28,65.9,43.9,33.5,-99.9,-99.9,-99.9,0,0,100,0.00,40.00,18,6,18,0.01
2013-12-29,42.8,39.3,29.0,-99.9,-99.9,-99.9,0,0,100,0.00,40.00,14,2,14,0.17
2013-12-30,47.1,23.0,17.1,-99.9,-99.9,-99.9,0,0,100,0.00,40.00,12,1,12,0.02
2013-12-31,26.2,19.1,13.2,-99.9,-99.9,-99.9,0,0,100,0.00,40.00,25,4,25,0.02
2014-1-1,35.0,22.6,17.6,-99.9,-99.9,-99.9,0,0,100,0.00,40.00,4,0,4,0.04
2014-1-2,27.2,17.3,8.4,-99.9,-99.9,-99.9,0,0,100,0.00,40.00,17,2,17,0.01